Home > Weather > Burnaby > Past weeks

Flag for Canada Weather for the Past 2 Weeks in Burnaby, British Columbia, Canada

Now
59 °F

Mostly cloudy.


Feels Like: 56 °F
Forecast: 49 / 62 °F
Wind: 14 mph from Northwest

Location: Vancouver International Airport

Current Time: May 4, 2016 at 4:07:54 PM

Latest Report: May 4, 2016 at 3:00 PM


Visibility: 30 mi

Pressure: 30.04 "Hg

Humidity: 63%

Dew Point: 46 °F

Location of BurnabyLocation

Historic Weather in Burnaby — Graph

°F

Burnaby Temperature Yesterday

Maximum temperature yesterday: 68 °F (at 12:00 AM)
Minimum temperature yesterday: 57 °F (at 9:00 PM)
Average temperature yesterday: 62 °F

High & Low Weather Summary for the Past Weeks

 TemperatureHumidityPressure
High75 °F (May 2, 5:00 PM)100% (Apr 22, 3:00 AM)30.38 "Hg (Apr 22, 3:00 AM)
Low45 °F (Apr 26, 5:00 AM)49% (May 2, 11:00 PM)29.59 "Hg (Apr 22, 6:00 AM)
Average56 °F76%30.00 "Hg
* Reported Apr 19 11:00 AM — May 4 11:00 AM, Burnaby, Weather by CustomWeather, © 2016

Note: Actual official high and low records may vary slightly from our data, if they occured in-between our weather recording intervals... More about our weather records

Advertising

Burnaby Weather History for the Previous 24 Hours

Scroll right to see more
 ConditionsComfort  
Time TempWeatherWind HumidityBarometerVisibility
11:00 AM
Wed, May 4
52 °FMore clouds than sun.24 mph82%30.07 "Hg15 mi
10:00 AM50 °FSprinkles. Mostly cloudy.24 mph88%30.06 "Hg15 mi
9:00 AM50 °FSprinkles. More clouds than sun.22 mph88%30.07 "Hg15 mi
8:00 AM50 °FSprinkles. More clouds than sun.25 mph82%30.06 "Hg15 mi
7:00 AM50 °FSprinkles. Mostly cloudy.26 mph82%30.07 "Hg15 mi
6:00 AM52 °FMostly cloudy.29 mph82%30.06 "Hg15 mi
5:00 AM52 °FOvercast.28 mph82%30.06 "Hg15 mi
4:00 AM52 °FMostly cloudy.22 mph88%30.07 "Hg15 mi
3:00 AM54 °FMostly cloudy.23 mph88%30.07 "Hg15 mi
2:00 AM54 °FMostly cloudy.24 mph94%30.08 "Hg15 mi
1:04 AM54 °FSprinkles. Mostly cloudy.20 mph88%30.09 "Hg15 mi
12:00 AM57 °FSprinkles. Mostly cloudy.10 mph94%30.08 "Hg15 mi
11:00 PM
Tue, May 3
57 °FSprinkles. Mostly cloudy.6 mph94%30.07 "Hg20 mi
10:00 PM57 °FMostly cloudy.6 mph94%30.06 "Hg20 mi
9:00 PM57 °FSprinkles. Mostly cloudy.7 mph94%30.05 "Hg20 mi
8:00 PM61 °FMostly cloudy.3 mph77%30.03 "Hg30 mi
7:00 PM61 °FScattered showers. Mostly cloudy.13 mph83%30.03 "Hg30 mi
6:00 PM61 °FMostly cloudy.16 mph83%30.03 "Hg30 mi
5:00 PM61 °FMostly cloudy.18 mph83%30.02 "Hg30 mi
4:00 PM64 °FCloudy.15 mph78%30.02 "Hg30 mi
Weather by CustomWeather, © 2016

See weather overviewHow to use our weather pages